Home > Weather > Dili > Past weeks

Flag for Timor-Leste Weather for the Past 2 Weeks in Dili, Timor-Leste

Now
90 °F

Passing clouds.


Feels Like: 98 °F
Forecast: 78 / 90 °F
Wind: 9 mph from Northeast

Location: Darwin Airport

Current Time: May 1, 2016 at 1:16:55 PM

Latest Report: May 1, 2016 at 12:00 PM


Visibility: N/A

Pressure: 29.83 "Hg

Humidity: 59%

Dew Point: 73 °F

Location of DiliLocation

Historic Weather in Dili — Graph

°F

Dili Temperature Yesterday

Maximum temperature yesterday: 91 °F (at 11:00 AM)
Minimum temperature yesterday: 77 °F (at 5:30 AM)
Average temperature yesterday: 85 °F

High & Low Weather Summary for the Past Weeks

 TemperatureHumidityPressure
High97 °F (Apr 22, 3:00 PM)100% (May 1, 4:30 AM)29.95 "Hg (May 1, 4:30 AM)
Low75 °F (Apr 24, 5:00 AM)23% (Apr 25, 3:00 PM)29.74 "Hg (Apr 27, 3:00 PM)
Average84 °F70%29.85 "Hg
* Reported Apr 16 11:00 AM — May 1 11:00 AM, Dili, Weather by CustomWeather, © 2016

Note: Actual official high and low records may vary slightly from our data, if they occured in-between our weather recording intervals... More about our weather records

Advertising

Dili Weather History for the Previous 24 Hours

Scroll right to see more
 ConditionsComfort  
Time TempWeatherWind HumidityBarometerVisibility
11:00 AM
Sun, May 1
88 °FScattered clouds.10 mph62%29.86 "HgN/A
10:30 AM90 °FScattered clouds.13 mph63%29.86 "HgN/A
10:00 AM86 °FScattered clouds.9 mph66%29.86 "HgN/A
9:30 AM86 °FScattered clouds.10 mph70%29.89 "HgN/A
9:00 AM84 °FPartly sunny.8 mph79%29.89 "HgN/A
8:30 AM82 °FPartly sunny.7 mph84%29.89 "HgN/A
8:00 AM82 °FBroken clouds.5 mph84%29.89 "HgN/A
7:30 AM81 °FBroken clouds.7 mph89%29.89 "HgN/A
7:00 AM81 °FBroken clouds.8 mph89%29.86 "HgN/A
6:30 AM79 °FPartly cloudy.5 mph94%29.86 "HgN/A
6:00 AM79 °FScattered showers. Clear.5 mph94%29.86 "HgN/A
5:30 AM79 °FClear.No wind94%29.86 "Hg10 mi
5:00 AM79 °FPartly cloudy.3 mph94%29.83 "HgN/A
4:30 AM77 °FLight rain. Passing clouds.5 mph100%29.83 "HgN/A
4:00 AM77 °FLight rain. Mostly cloudy.7 mph94%29.83 "HgN/A
3:30 AM77 °FDrizzle. Overcast.5 mph94%29.86 "HgN/A
3:03 AM77 °FRain showers. Passing clouds.10 mph94%29.83 "HgN/A
2:00 AM75 °FStrong thunderstorms. Partly cloudy.21 mph94%29.86 "Hg6 mi
1:58 AM75 °FThunderstorms. Partly cloudy.22 mph94%29.86 "Hg5 mi
1:00 AM82 °FSprinkles. Partly cloudy.6 mph84%29.83 "HgN/A
12:30 AM82 °FPartly cloudy.1 mph84%29.83 "HgN/A
12:00 AM82 °FPartly cloudy.2 mph84%29.86 "HgN/A
11:30 PM
Sat, Apr 30
82 °FPassing clouds.5 mph84%29.86 "HgN/A
11:00 PM84 °FPassing clouds.6 mph79%29.86 "HgN/A
10:30 PM84 °FPassing clouds.6 mph79%29.86 "HgN/A
10:00 PM82 °FClear.5 mph84%29.86 "Hg10 mi
9:30 PM84 °FClear.6 mph79%29.86 "Hg10 mi
9:00 PM84 °FClear.6 mph79%29.86 "Hg10 mi
8:30 PM86 °FPassing clouds.8 mph75%29.83 "HgN/A
8:00 PM84 °FClear.7 mph79%29.83 "Hg10 mi
7:30 PM86 °FClear.7 mph70%29.83 "Hg10 mi
7:00 PM86 °FPassing clouds.8 mph70%29.83 "HgN/A
6:30 PM86 °FPassing clouds.9 mph70%29.83 "HgN/A
6:00 PM88 °FScattered clouds.8 mph66%29.80 "HgN/A
5:00 PM88 °FPartly sunny.10 mph66%29.77 "HgN/A
4:30 PM88 °FPartly sunny.10 mph62%29.77 "HgN/A
4:00 PM88 °FPartly sunny.9 mph66%29.77 "HgN/A
3:30 PM90 °FPartly sunny.9 mph59%29.77 "HgN/A
3:00 PM90 °FPartly sunny.10 mph59%29.77 "HgN/A
2:30 PM90 °FBroken clouds.10 mph63%29.77 "HgN/A
2:00 PM91 °FPartly sunny.10 mph59%29.80 "HgN/A
1:30 PM88 °FScattered clouds.10 mph70%29.80 "HgN/A
1:00 PM91 °FScattered clouds.13 mph59%29.83 "HgN/A
Weather by CustomWeather, © 2016

See weather overviewHow to use our weather pages